Location: Unnamed Road
(35.9029°N, 51.9749°E)
Time: 12:28:34
(UTC+04:30)

A-11 Canister half - All Passes

Search period start: 26 May 2020 00:00
Search period end: 05 June 2020 00:00
Orbit: 1515 x 1684 km, 47.2° (Epoch: 25 May)

Date Brightness Start Highest point End Pass type
(mag) Time Alt. Az. Time Alt. Az. Time Alt. Az.
26 May - 12:24:02 10° SSE 12:29:24 16° SE 12:34:40 10° E daylight
26 May - 14:23:41 10° SW 14:33:05 66° SE 14:42:14 10° ENE daylight
26 May - 16:29:06 10° W 16:38:15 54° NNW 16:47:17 10° NE daylight
26 May - 18:36:08 10° WNW 18:44:48 41° N 18:53:26 10° ENE daylight
26 May - 20:41:47 10° NW 20:51:01 68° NNE 21:00:19 10° ESE visible
26 May - 22:47:01 10° WNW 22:55:37 45° SW 23:04:24 10° SSE visible
27 May - 12:01:49 10° SSE 12:06:34 15° ESE 12:11:15 10° E daylight
27 May - 14:00:49 10° SW 14:10:12 62° SE 14:19:18 10° ENE daylight
27 May - 16:06:04 10° W 16:15:17 56° NNW 16:24:21 10° NE daylight
27 May - 18:13:07 10° WNW 18:21:47 41° N 18:30:25 10° ENE daylight
27 May - 20:18:52 10° NW 20:28:04 65° NNE 20:37:20 10° ESE visible
27 May - 22:24:03 10° WNW 22:32:46 48° SW 22:41:39 10° SSE visible
28 May - 11:39:44 10° SSE 11:43:45 13° ESE 11:47:43 10° E daylight
28 May - 13:37:59 10° SSW 13:47:18 59° SE 13:56:22 10° ENE daylight
28 May - 15:43:02 10° WSW 15:52:19 58° NNW 16:01:25 10° NE daylight
28 May - 17:50:06 10° WNW 17:58:47 41° N 18:07:24 10° ENE daylight
28 May - 19:55:58 10° NW 20:05:07 62° NNE 20:14:20 10° ESE daylight
28 May - 22:01:06 10° WNW 22:09:54 51° SW 22:18:52 10° SSE visible
29 May - 11:17:54 10° SE 11:20:56 12° ESE 11:23:56 10° ESE daylight
29 May - 13:15:09 10° SSW 13:24:26 55° SE 13:33:27 10° ENE daylight
29 May - 15:20:01 10° WSW 15:29:21 60° NNW 15:38:31 10° NE daylight
29 May - 17:27:04 10° WNW 17:35:46 41° N 17:44:23 10° ENE daylight
29 May - 19:33:02 10° NW 19:42:10 60° NNE 19:51:19 10° ESE daylight
29 May - 21:38:09 10° WNW 21:47:02 54° SW 21:56:05 10° SSE visible
29 May - 23:47:59 10° WSW 23:50:28 11° WSW 23:53:00 10° SW visible
30 May - 10:56:44 10° SE 10:58:07 10° ESE 10:59:28 10° ESE daylight
30 May - 12:52:21 10° SSW 13:01:34 52° SE 13:10:30 10° ENE daylight
30 May - 14:56:59 10° WSW 15:06:24 63° NNW 15:15:36 10° NE daylight
30 May - 17:04:03 10° WNW 17:12:46 41° N 17:21:22 10° ENE daylight
30 May - 19:10:06 10° NW 19:19:13 58° NNE 19:28:20 10° ESE daylight
30 May - 21:15:12 10° WNW 21:24:11 58° SW 21:33:17 10° SSE visible
30 May - 23:24:04 10° W 23:27:40 13° WSW 23:31:18 10° SW visible
31 May - 12:29:33 10° SSW 12:38:41 48° SE 12:47:32 10° ENE daylight
31 May - 14:33:58 10° WSW 14:43:27 65° NNW 14:52:41 10° NE daylight
31 May - 16:41:00 10° WNW 16:49:45 41° N 16:58:22 10° ENE daylight
31 May - 18:47:10 10° NW 18:56:15 56° NNE 19:05:19 10° E daylight
31 May - 20:52:16 10° WNW 21:01:19 62° SW 21:10:27 10° SE visible
31 May - 23:00:27 10° W 23:04:51 14° WSW 23:09:17 10° SSW visible
01 Jun - 12:06:47 10° SSW 12:15:49 45° SE 12:24:35 10° ENE daylight
01 Jun - 14:10:58 10° WSW 14:20:30 68° NNW 14:29:47 10° NE daylight
01 Jun - 16:17:57 10° WNW 16:26:44 42° N 16:35:23 10° ENE daylight
01 Jun - 18:24:14 10° NW 18:33:17 54° NNE 18:42:18 10° E daylight
01 Jun - 20:29:20 10° WNW 20:38:26 66° SW 20:47:37 10° SE visible
01 Jun - 22:37:01 10° W 22:42:02 16° SW 22:47:06 10° SSW visible
02 Jun - 11:44:01 10° SSW 11:52:57 42° SE 12:01:36 10° ENE daylight
02 Jun - 13:47:57 10° WSW 13:57:33 71° NNW 14:06:53 10° NE daylight
02 Jun - 15:54:55 10° WNW 16:03:44 42° N 16:12:23 10° ENE daylight
02 Jun - 18:01:17 10° NW 18:10:19 52° NNE 18:19:17 10° E daylight
02 Jun - 20:06:24 10° WNW 20:15:34 70° SW 20:24:47 10° SE daylight
02 Jun - 22:13:41 10° W 22:19:13 18° SW 22:24:49 10° SSW visible
03 Jun - 11:21:17 10° SSW 11:30:05 40° SE 11:38:37 10° ENE daylight
03 Jun - 13:24:57 10° WSW 13:34:36 74° NNW 13:43:58 10° NE daylight
03 Jun - 15:31:51 10° WNW 15:40:43 43° N 15:49:24 10° ENE daylight
03 Jun - 17:38:20 10° WNW 17:47:21 50° NNE 17:56:16 10° E daylight
03 Jun - 19:43:28 10° WNW 19:52:41 74° SW 20:01:55 10° SE daylight
03 Jun - 21:50:25 10° W 21:56:24 19° SW 22:02:28 10° SSW visible
04 Jun - 10:58:34 10° SSW 11:07:14 37° SE 11:15:37 10° ENE daylight
04 Jun - 13:01:57 10° WSW 13:11:40 77° NNW 13:21:05 10° NE daylight
04 Jun - 15:08:47 10° WNW 15:17:42 43° N 15:26:26 10° ENE daylight
04 Jun - 17:15:22 10° WNW 17:24:21 49° NNE 17:33:15 10° E daylight
04 Jun - 19:20:33 10° WNW 19:29:47 78° SW 19:39:03 10° SE daylight
04 Jun - 21:27:13 10° W 21:33:35 21° SW 21:40:02 10° S visible
